Time,TemperatureF,DewpointF,PressureIn,WindDirection,WindDirectionDegrees,WindSpeedMPH,WindSpeedGustMPH,Humidity,HourlyPrecipIn,Conditions,Clouds,dailyrainin,SoftwareType,DateUTC
2013-03-21 00:00:00,38.5,1.8,29.68,North,10,4.2,8.3,21,0.00,,,0.00,WUHU216WMR968SP,2013-03-21 05:00:00,
2013-03-21 00:05:00,38.5,1.8,29.68,North,7,4.9,10.1,21,0.00,,,0.00,WUHU216WMR968SP,2013-03-21 05:05:00,
2013-03-21 00:10:00,38.3,1.7,29.68,North,4,0.0,10.1,21,0.00,,,0.00,WUHU216WMR968SP,2013-03-21 05:10:00,
2013-03-21 00:15:00,37.9,1.3,29.68,NNW,348,3.1,6.3,21,0.00,,,0.00,WUHU216WMR968SP,2013-03-21 05:15:00,
2013-03-21 00:20:00,37.6,1.1,29.68,NNW,346,3.1,8.1,21,0.00,,,0.00,WUHU216WMR968SP,2013-03-21 05:20:00,
2013-03-21 00:25:00,37.0,1.6,29.68,North,1,2.7,8.1,22,0.00,,,0.00,WUHU216WMR968SP,2013-03-21 05:25:00,
2013-03-21 00:30:00,36.9,1.5,29.68,NNW,340,2.7,6.3,22,0.00,,,0.00,WUHU216WMR968SP,2013-03-21 05:30:00,
2013-03-21 00:35:00,36.7,1.3,29.68,NW,326,0.0,5.4,22,0.00,,,0.00,WUHU216WMR968SP,2013-03-21 05:35:00,
2013-03-21 00:40:00,36.3,1.0,29.68,North,353,3.1,5.4,22,0.00,,,0.00,WUHU216WMR968SP,2013-03-21 05:40:00,
2013-03-21 00:45:00,36.1,0.8,29.68,NNW,342,2.2,4.9,22,0.00,,,0.00,WUHU216WMR968SP,2013-03-21 05:45:00,
2013-03-21 00:50:00,35.8,0.6,29.68,North,353,0.0,3.6,22,0.00,,,0.00,WUHU216WMR968SP,2013-03-21 05:50:00,
2013-03-21 00:55:00,35.8,0.6,29.68,North,8,3.1,4.9,22,0.00,,,0.00,WUHU216WMR968SP,2013-03-21 05:55:00,
2013-03-21 01:00:00,35.8,0.6,29.68,North,357,4.0,4.9,22,0.00,,,0.00,WUHU216WMR968SP,2013-03-21 06:00:00,
2013-03-21 01:05:00,35.6,0.4,29.68,North,11,0.0,4.9,22,0.00,,,0.00,WUHU216WMR968SP,2013-03-21 06:05:00,
2013-03-21 01:10:00,35.6,0.4,29.68,North,0,0.0,4.0,22,0.00,,,0.00,WUHU216WMR968SP,2013-03-21 06:10:00,
2013-03-21 01:15:00,35.2,0.0,29.68,North,353,0.0,4.0,22,0.00,,,0.00,WUHU216WMR968SP,2013-03-21 06:15:00,
2013-03-21 01:20:00,34.9,-0.2,29.68,North,0,0.0,4.0,22,0.00,,,0.00,WUHU216WMR968SP,2013-03-21 06:20:00,
2013-03-21 01:25:00,34.7,-0.4,29.68,NW,326,0.0,3.6,22,0.00,,,0.00,WUHU216WMR968SP,2013-03-21 06:25:00,
2013-03-21 01:30:00,34.7,-0.4,29.68,NNW,342,0.0,3.6,22,0.00,,,0.00,WUHU216WMR968SP,2013-03-21 06:30:00,
2013-03-21 01:35:00,34.5,2.1,29.68,North,351,2.2,5.4,25,0.00,,,0.00,WUHU216WMR968SP,2013-03-21 06:35:00,
2013-03-21 01:40:00,34.2,1.9,29.68,North,7,0.0,5.4,25,0.00,,,0.00,WUHU216WMR968SP,2013-03-21 06:40:00,
2013-03-21 01:45:00,34.0,1.7,29.68,NNW,338,0.0,4.0,25,0.00,,,0.00,WUHU216WMR968SP,2013-03-21 06:45:00,
2013-03-21 01:50:00,33.8,1.5,29.68,NNW,345,0.0,3.1,25,0.00,,,0.00,WUHU216WMR968SP,2013-03-21 06:50:00,
2013-03-21 01:55:00,33.8,1.5,29.68,NNW,348,2.7,4.0,25,0.00,,,0.00,WUHU216WMR968SP,2013-03-21 06:55:00,
2013-03-21 02:00:00,33.8,1.5,29.68,North,8,0.0,4.0,25,0.00,,,0.00,WUHU216WMR968SP,2013-03-21 07:00:00,
2013-03-21 02:05:00,33.8,3.1,29.68,North,4,2.2,5.4,27,0.00,,,0.00,WUHU216WMR968SP,2013-03-21 07:05:00,
2013-03-21 02:10:00,33.6,3.7,29.68,North,0,3.1,5.4,28,0.00,,,0.00,WUHU216WMR968SP,2013-03-21 07:10:00,
2013-03-21 02:15:00,33.6,3.7,29.68,NNE,15,2.2,7.2,28,0.00,,,0.00,WUHU216WMR968SP,2013-03-21 07:15:00,
2013-03-21 02:20:00,33.4,5.1,29.68,North,350,0.0,7.2,30,0.00,,,0.00,WUHU216WMR968SP,2013-03-21 07:20:00,
2013-03-21 02:25:00,33.3,5.0,29.68,North,11,0.0,4.0,30,0.00,,,0.00,WUHU216WMR968SP,2013-03-21 07:25:00,
2013-03-21 02:30:00,33.1,4.8,29.68,North,353,0.0,3.6,30,0.00,,,0.00,WUHU216WMR968SP,2013-03-21 07:30:00,
2013-03-21 02:35:00,32.7,4.4,29.68,North,357,0.0,2.7,30,0.00,,,0.00,WUHU216WMR968SP,2013-03-21 07:35:00,
2013-03-21 02:40:00,32.5,5.0,29.68,North,9,0.0,2.7,31,0.00,,,0.00,WUHU216WMR968SP,2013-03-21 07:40:00,
2013-03-21 02:45:00,32.5,5.0,29.68,North,3,0.0,3.6,31,0.00,,,0.00,WUHU216WMR968SP,2013-03-21 07:45:00,
2013-03-21 02:50:00,32.4,4.9,29.68,NNE,22,0.0,4.0,31,0.00,,,0.00,WUHU216WMR968SP,2013-03-21 07:50:00,
2013-03-21 02:55:00,32.2,4.7,29.68,North,7,0.0,4.0,31,0.00,,,0.00,WUHU216WMR968SP,2013-03-21 07:55:00,
2013-03-21 03:00:00,32.0,4.5,29.68,North,4,0.0,3.6,31,0.00,,,0.00,WUHU216WMR968SP,2013-03-21 08:00:00,
2013-03-21 03:05:00,31.8,5.0,29.68,NNE,14,0.0,3.6,32,0.00,,,0.00,WUHU216WMR968SP,2013-03-21 08:05:00,
2013-03-21 03:10:00,31.5,6.1,29.68,NNW,346,0.0,2.7,34,0.00,,,0.00,WUHU216WMR968SP,2013-03-21 08:10:00,
2013-03-21 03:15:00,30.9,6.2,29.68,North,357,0.0,2.7,35,0.00,,,0.00,WUHU216WMR968SP,2013-03-21 08:15:00,
2013-03-21 03:20:00,30.9,8.0,29.68,NNW,338,0.0,3.1,38,0.00,,,0.00,WUHU216WMR968SP,2013-03-21 08:20:00,
2013-03-21 03:25:00,30.9,9.2,29.68,ENE,61,0.0,4.0,40,0.00,,,0.00,WUHU216WMR968SP,2013-03-21 08:25:00,
2013-03-21 03:30:00,30.9,9.2,29.68,North,1,2.9,4.9,40,0.00,,,0.00,WUHU216WMR968SP,2013-03-21 08:30:00,
2013-03-21 03:35:00,31.1,9.4,29.68,North,349,2.2,4.9,40,0.00,,,0.00,WUHU216WMR968SP,2013-03-21 08:35:00,
2013-03-21 03:40:00,31.1,9.4,29.68,NNW,340,2.7,5.4,40,0.00,,,0.00,WUHU216WMR968SP,2013-03-21 08:40:00,
2013-03-21 03:45:00,31.1,9.4,29.68,North,3,2.3,5.4,40,0.00,,,0.00,WUHU216WMR968SP,2013-03-21 08:45:00,
2013-03-21 03:50:00,31.1,9.4,29.68,NNE,24,0.0,4.9,40,0.00,,,0.00,WUHU216WMR968SP,2013-03-21 08:50:00,
2013-03-21 03:55:00,31.1,9.4,29.68,North,357,0.0,4.9,40,0.00,,,0.00,WUHU216WMR968SP,2013-03-21 08:55:00,
2013-03-21 04:00:00,31.1,9.4,29.68,North,4,0.0,3.6,40,0.00,,,0.00,WUHU216WMR968SP,2013-03-21 09:00:00,
2013-03-21 04:05:00,30.9,9.2,29.68,North,355,2.2,4.9,40,0.00,,,0.00,WUHU216WMR968SP,2013-03-21 09:05:00,
2013-03-21 04:10:00,30.9,9.2,29.68,North,0,0.0,4.9,40,0.00,,,0.00,WUHU216WMR968SP,2013-03-21 09:10:00,
2013-03-21 04:15:00,30.6,8.9,29.68,North,353,0.0,4.0,40,0.00,,,0.00,WUHU216WMR968SP,2013-03-21 09:15:00,
2013-03-21 04:20:00,30.4,8.7,29.68,North,353,0.0,0.0,40,0.00,,,0.00,WUHU216WMR968SP,2013-03-21 09:20:00,
2013-03-21 04:25:00,30.0,8.9,29.68,North,357,0.0,0.0,41,0.00,,,0.00,WUHU216WMR968SP,2013-03-21 09:25:00,
2013-03-21 04:30:00,29.5,8.5,29.68,North,357,0.0,0.0,41,0.00,,,0.00,WUHU216WMR968SP,2013-03-21 09:30:00,
2013-03-21 04:35:00,29.5,8.5,29.68,North,357,0.0,0.0,41,0.00,,,0.00,WUHU216WMR968SP,2013-03-21 09:35:00,
2013-03-21 04:40:00,29.3,8.3,29.68,North,357,0.0,0.0,41,0.00,,,0.00,WUHU216WMR968SP,2013-03-21 09:40:00,
2013-03-21 04:45:00,28.9,7.9,29.68,North,357,0.0,0.0,41,0.00,,,0.00,WUHU216WMR968SP,2013-03-21 09:45:00,
2013-03-21 04:50:00,28.9,7.9,29.68,North,5,0.0,2.2,41,0.00,,,0.00,WUHU216WMR968SP,2013-03-21 09:50:00,
2013-03-21 04:55:00,28.9,8.5,29.68,North,7,0.0,2.2,42,0.00,,,0.00,WUHU216WMR968SP,2013-03-21 09:55:00,
2013-03-21 05:00:00,28.8,8.4,29.68,North,6,0.0,0.0,42,0.00,,,0.00,WUHU216WMR968SP,2013-03-21 10:00:00,
2013-03-21 05:05:00,28.8,8.4,29.68,NNE,14,0.0,0.0,42,0.00,,,0.00,WUHU216WMR968SP,2013-03-21 10:05:00,
2013-03-21 05:10:00,28.6,8.8,29.68,NNE,14,0.0,0.0,43,0.00,,,0.00,WUHU216WMR968SP,2013-03-21 10:10:00,
2013-03-21 05:15:00,28.6,9.8,29.68,NNE,14,0.0,0.0,45,0.00,,,0.00,WUHU216WMR968SP,2013-03-21 10:15:00,
2013-03-21 05:20:00,28.2,9.4,29.68,NNE,14,0.0,0.0,45,0.00,,,0.00,WUHU216WMR968SP,2013-03-21 10:20:00,
2013-03-21 05:25:00,28.2,9.9,29.68,NNE,14,0.0,0.0,46,0.00,,,0.00,WUHU216WMR968SP,2013-03-21 10:25:00,
2013-03-21 05:30:00,28.0,9.8,29.68,NNE,14,0.0,0.0,46,0.00,,,0.00,WUHU216WMR968SP,2013-03-21 10:30:00,
2013-03-21 05:35:00,28.2,10.9,29.68,NNE,14,0.0,0.0,48,0.00,,,0.00,WUHU216WMR968SP,2013-03-21 10:35:00,
2013-03-21 05:40:00,28.2,12.3,29.68,NNE,14,0.0,0.0,51,0.00,,,0.00,WUHU216WMR968SP,2013-03-21 10:40:00,
2013-03-21 05:45:00,27.9,12.0,29.68,NNE,14,0.0,0.0,51,0.00,,,0.00,WUHU216WMR968SP,2013-03-21 10:45:00,
2013-03-21 05:50:00,27.9,12.0,29.68,NNE,14,0.0,0.0,51,0.00,,,0.00,WUHU216WMR968SP,2013-03-21 10:50:00,
2013-03-21 05:55:00,27.9,12.0,29.68,NNE,14,0.0,0.0,51,0.00,,,0.00,WUHU216WMR968SP,2013-03-21 10:55:00,
2013-03-21 06:00:00,28.0,12.1,29.68,North,8,0.0,2.7,51,0.00,,,0.00,WUHU216WMR968SP,2013-03-21 11:00:00,
2013-03-21 06:05:00,28.2,11.9,29.68,NNE,31,0.0,3.1,50,0.00,,,0.00,WUHU216WMR968SP,2013-03-21 11:05:00,
2013-03-21 06:10:00,28.4,11.6,29.68,North,357,0.0,3.1,49,0.00,,,0.00,WUHU216WMR968SP,2013-03-21 11:10:00,
2013-03-21 06:15:00,28.2,11.4,29.68,North,2,0.0,3.1,49,0.00,,,0.00,WUHU216WMR968SP,2013-03-21 11:15:00,
2013-03-21 06:20:00,28.2,10.9,29.68,North,357,0.0,3.1,48,0.00,,,0.00,WUHU216WMR968SP,2013-03-21 11:20:00,
2013-03-21 06:25:00,28.0,10.7,29.68,NNE,33,0.0,0.0,48,0.00,,,0.00,WUHU216WMR968SP,2013-03-21 11:25:00,
2013-03-21 06:30:00,28.0,10.7,29.68,NNE,22,0.0,0.0,48,0.00,,,0.00,WUHU216WMR968SP,2013-03-21 11:30:00,
2013-03-21 06:35:00,27.9,10.6,29.68,North,5,0.0,0.0,48,0.00,,,0.00,WUHU216WMR968SP,2013-03-21 11:35:00,
2013-03-21 06:40:00,27.7,10.5,29.68,NNE,14,0.0,0.0,48,0.00,,,0.00,WUHU216WMR968SP,2013-03-21 11:40:00,
2013-03-21 06:45:00,27.5,10.3,29.71,NNE,14,0.0,0.0,48,0.00,,,0.00,WUHU216WMR968SP,2013-03-21 11:45:00,
2013-03-21 06:50:00,27.3,11.5,29.71,North,0,0.0,0.0,51,0.00,,,0.00,WUHU216WMR968SP,2013-03-21 11:50:00,
2013-03-21 06:55:00,27.1,11.3,29.71,North,0,0.0,0.0,51,0.00,,,0.00,WUHU216WMR968SP,2013-03-21 11:55:00,
2013-03-21 07:00:00,27.0,11.7,29.68,North,0,0.0,0.0,52,0.00,,,0.00,WUHU216WMR968SP,2013-03-21 12:00:00,
2013-03-21 07:05:00,27.0,11.7,29.68,North,0,0.0,0.0,52,0.00,,,0.00,WUHU216WMR968SP,2013-03-21 12:05:00,
2013-03-21 07:10:00,27.0,11.7,29.68,North,0,0.0,0.0,52,0.00,,,0.00,WUHU216WMR968SP,2013-03-21 12:10:00,
2013-03-21 07:15:00,27.0,11.7,29.71,North,349,0.0,0.0,52,0.00,,,0.00,WUHU216WMR968SP,2013-03-21 12:15:00,
2013-03-21 07:20:00,27.0,11.7,29.71,NNW,346,0.0,0.0,52,0.00,,,0.00,WUHU216WMR968SP,2013-03-21 12:20:00,
2013-03-21 07:25:00,27.3,12.4,29.71,NNW,346,0.0,0.0,53,0.00,,,0.00,WUHU216WMR968SP,2013-03-21 12:25:00,
2013-03-21 07:30:00,27.9,12.9,29.71,NNW,346,0.0,0.0,53,0.00,,,0.00,WUHU216WMR968SP,2013-03-21 12:30:00,
2013-03-21 07:35:00,28.2,13.2,29.71,North,357,0.0,0.0,53,0.00,,,0.00,WUHU216WMR968SP,2013-03-21 12:35:00,
2013-03-21 07:40:00,28.6,13.6,29.71,North,7,0.0,0.0,53,0.00,,,0.00,WUHU216WMR968SP,2013-03-21 12:40:00,
2013-03-21 07:45:00,28.8,13.3,29.71,NNE,17,0.0,0.0,52,0.00,,,0.00,WUHU216WMR968SP,2013-03-21 12:45:00,
2013-03-21 07:50:00,29.3,13.8,29.71,NNE,31,0.0,0.0,52,0.00,,,0.00,WUHU216WMR968SP,2013-03-21 12:50:00,
2013-03-21 07:55:00,29.8,14.3,29.71,NNE,33,0.0,3.1,52,0.00,,,0.00,WUHU216WMR968SP,2013-03-21 12:55:00,
2013-03-21 08:01:00,30.2,14.2,29.71,NE,36,0.0,3.1,51,0.00,,,0.00,WUHU216WMR968SP,2013-03-21 13:01:00,
2013-03-21 08:06:00,30.2,13.7,29.71,ENE,64,0.0,0.0,50,0.00,,,0.00,WUHU216WMR968SP,2013-03-21 13:06:00,
2013-03-21 08:11:00,30.7,13.7,29.71,NE,50,0.0,4.5,49,0.00,,,0.00,WUHU216WMR968SP,2013-03-21 13:11:00,
2013-03-21 08:16:00,30.9,12.9,29.71,NNE,27,2.2,4.5,47,0.00,,,0.00,WUHU216WMR968SP,2013-03-21 13:16:00,
2013-03-21 08:21:00,31.3,12.8,29.71,NE,40,2.7,4.9,46,0.00,,,0.00,WUHU216WMR968SP,2013-03-21 13:21:00,
2013-03-21 08:26:00,31.8,12.2,29.71,NE,52,2.7,5.4,44,0.00,,,0.00,WUHU216WMR968SP,2013-03-21 13:26:00,
2013-03-21 08:31:00,32.2,11.5,29.71,NE,41,3.1,6.3,42,0.00,,,0.00,WUHU216WMR968SP,2013-03-21 13:31:00,
2013-03-21 08:36:00,32.7,11.9,29.71,NE,39,2.7,6.3,42,0.00,,,0.00,WUHU216WMR968SP,2013-03-21 13:36:00,
2013-03-21 08:41:00,33.1,11.2,29.71,NNE,20,3.6,6.3,40,0.00,,,0.00,WUHU216WMR968SP,2013-03-21 13:41:00,
2013-03-21 08:46:00,33.3,10.8,29.71,NE,47,4.0,6.3,39,0.00,,,0.00,WUHU216WMR968SP,2013-03-21 13:46:00,
2013-03-21 08:51:00,33.4,9.7,29.71,NE,43,3.6,6.3,37,0.00,,,0.00,WUHU216WMR968SP,2013-03-21 13:51:00,
2013-03-21 08:56:00,34.2,10.4,29.71,NNW,346,0.0,5.4,37,0.00,,,0.00,WUHU216WMR968SP,2013-03-21 13:56:00,
2013-03-21 09:01:00,34.5,9.4,29.71,NE,47,2.7,5.4,35,0.00,,,0.00,WUHU216WMR968SP,2013-03-21 14:01:00,
2013-03-21 09:06:00,34.5,8.1,29.71,NNE,32,3.1,5.8,33,0.00,,,0.00,WUHU216WMR968SP,2013-03-21 14:06:00,
2013-03-21 09:11:00,34.9,7.8,29.71,NE,42,0.0,6.3,32,0.00,,,0.00,WUHU216WMR968SP,2013-03-21 14:11:00,
2013-03-21 09:16:00,35.2,7.3,29.71,NE,56,3.6,6.3,31,0.00,,,0.00,WUHU216WMR968SP,2013-03-21 14:16:00,
2013-03-21 09:21:00,35.4,7.5,29.71,North,10,3.1,6.3,31,0.00,,,0.00,WUHU216WMR968SP,2013-03-21 14:21:00,
2013-03-21 09:26:00,35.8,7.1,29.71,NE,54,2.7,5.8,30,0.00,,,0.00,WUHU216WMR968SP,2013-03-21 14:26:00,
2013-03-21 09:31:00,35.8,7.1,29.71,NNE,20,2.7,4.9,30,0.00,,,0.00,WUHU216WMR968SP,2013-03-21 14:31:00,
2013-03-21 09:36:00,36.0,7.3,29.71,NNE,32,0.0,5.8,30,0.00,,,0.00,WUHU216WMR968SP,2013-03-21 14:36:00,
2013-03-21 09:41:00,36.7,7.9,29.71,NNE,12,3.1,6.3,30,0.00,,,0.00,WUHU216WMR968SP,2013-03-21 14:41:00,
2013-03-21 09:46:00,36.9,8.1,29.71,NNW,345,4.0,8.1,30,0.00,,,0.00,WUHU216WMR968SP,2013-03-21 14:46:00,
2013-03-21 09:51:00,37.0,7.5,29.71,North,8,0.0,8.1,29,0.00,,,0.00,WUHU216WMR968SP,2013-03-21 14:51:00,
2013-03-21 09:56:00,37.2,7.6,29.71,NNE,16,4.0,8.7,29,0.00,,,0.00,WUHU216WMR968SP,2013-03-21 14:56:00,
2013-03-21 10:01:00,37.4,5.4,29.71,NE,48,3.1,8.7,26,0.00,,,0.00,WUHU216WMR968SP,2013-03-21 15:01:00,
2013-03-21 10:06:00,37.6,5.6,29.71,NW,308,0.0,6.3,26,0.00,,,0.00,WUHU216WMR968SP,2013-03-21 15:06:00,
2013-03-21 10:11:00,37.9,5.9,29.71,NE,34,5.4,8.3,26,0.00,,,0.00,WUHU216WMR968SP,2013-03-21 15:11:00,
2013-03-21 10:15:00,38.5,6.4,29.71,NE,46,0.0,8.3,26,0.00,,,0.00,WUHU216WMR968SP,2013-03-21 15:15:00,
2013-03-21 10:20:00,39.4,7.2,29.71,ENE,78,4.0,6.3,26,0.00,,,0.00,WUHU216WMR968SP,2013-03-21 15:20:00,
2013-03-21 10:25:00,39.7,4.8,29.71,NNE,14,0.0,6.3,23,0.00,,,0.00,WUHU216WMR968SP,2013-03-21 15:25:00,
2013-03-21 10:30:00,39.0,5.1,29.71,North,349,4.0,7.6,24,0.00,,,0.00,WUHU216WMR968SP,2013-03-21 15:30:00,
2013-03-21 10:35:00,39.2,4.4,29.71,NE,38,3.2,10.1,23,0.00,,,0.00,WUHU216WMR968SP,2013-03-21 15:35:00,
2013-03-21 10:40:00,39.4,4.5,29.71,WNW,291,2.7,10.1,23,0.00,,,0.00,WUHU216WMR968SP,2013-03-21 15:40:00,
2013-03-21 10:45:00,39.9,5.0,29.71,North,9,0.0,7.6,23,0.00,,,0.00,WUHU216WMR968SP,2013-03-21 15:45:00,
2013-03-21 10:50:00,40.5,5.5,29.71,NNE,15,0.0,7.6,23,0.00,,,0.00,WUHU216WMR968SP,2013-03-21 15:50:00,
2013-03-21 10:55:00,40.8,5.7,29.71,NNW,337,3.1,7.6,23,0.00,,,0.00,WUHU216WMR968SP,2013-03-21 15:55:00,
2013-03-21 11:00:00,41.2,6.1,29.71,NE,35,0.0,5.4,23,0.00,,,0.00,WUHU216WMR968SP,2013-03-21 16:00:00,
2013-03-21 11:05:00,41.5,6.3,29.71,NNE,21,2.7,5.4,23,0.00,,,0.00,WUHU216WMR968SP,2013-03-21 16:05:00,
2013-03-21 11:10:00,41.4,6.2,29.71,North,2,0.0,5.4,23,0.00,,,0.00,WUHU216WMR968SP,2013-03-21 16:10:00,
2013-03-21 11:15:00,41.0,5.9,29.71,ENE,77,0.0,3.6,23,0.00,,,0.00,WUHU216WMR968SP,2013-03-21 16:15:00,
2013-03-21 11:20:00,41.4,6.2,29.71,NNW,339,3.1,6.3,23,0.00,,,0.00,WUHU216WMR968SP,2013-03-21 16:20:00,
2013-03-21 11:25:00,41.4,6.2,29.71,NE,34,0.0,6.3,23,0.00,,,0.00,WUHU216WMR968SP,2013-03-21 16:25:00,
2013-03-21 11:30:00,41.9,6.7,29.68,SE,132,0.0,4.9,23,0.00,,,0.00,WUHU216WMR968SP,2013-03-21 16:30:00,
2013-03-21 11:35:00,43.2,7.8,29.68,East,96,0.0,4.0,23,0.00,,,0.00,WUHU216WMR968SP,2013-03-21 16:35:00,
2013-03-21 11:40:00,44.2,8.6,29.68,WNW,300,0.0,3.6,23,0.00,,,0.00,WUHU216WMR968SP,2013-03-21 16:40:00,
2013-03-21 11:45:00,43.7,5.2,29.68,SE,126,4.5,6.7,20,0.00,,,0.00,WUHU216WMR968SP,2013-03-21 16:45:00,
2013-03-21 11:50:00,43.3,7.8,29.68,SW,222,3.1,6.7,23,0.00,,,0.00,WUHU216WMR968SP,2013-03-21 16:50:00,
2013-03-21 11:56:00,43.0,4.6,29.68,NW,306,4.0,6.7,20,0.00,,,0.00,WUHU216WMR968SP,2013-03-21 16:56:00,
2013-03-21 12:01:00,43.2,4.7,29.68,NNE,21,5.4,6.7,20,0.00,,,0.00,WUHU216WMR968SP,2013-03-21 17:01:00,
2013-03-21 12:06:00,44.2,5.6,29.68,ENE,77,3.1,6.7,20,0.00,,,0.00,WUHU216WMR968SP,2013-03-21 17:06:00,
2013-03-21 12:11:00,45.0,6.2,29.68,NNE,16,4.5,7.6,20,0.00,,,0.00,WUHU216WMR968SP,2013-03-21 17:11:00,
2013-03-21 12:16:00,44.1,5.5,29.68,WNW,286,4.0,7.6,20,0.00,,,0.00,WUHU216WMR968SP,2013-03-21 17:16:00,
2013-03-21 12:21:00,43.5,5.0,29.68,West,271,0.0,6.3,20,0.00,,,0.00,WUHU216WMR968SP,2013-03-21 17:21:00,
2013-03-21 12:26:00,45.3,6.5,29.68,South,184,0.0,3.6,20,0.00,,,0.00,WUHU216WMR968SP,2013-03-21 17:26:00,
2013-03-21 12:31:00,46.2,7.2,29.68,NNW,341,3.5,5.4,20,0.00,,,0.00,WUHU216WMR968SP,2013-03-21 17:31:00,
2013-03-21 12:36:00,45.9,7.0,29.68,NE,36,3.9,5.8,20,0.00,,,0.00,WUHU216WMR968SP,2013-03-21 17:36:00,
2013-03-21 12:41:00,46.6,6.5,29.68,NNE,31,3.1,5.8,19,0.00,,,0.00,WUHU216WMR968SP,2013-03-21 17:41:00,
2013-03-21 12:46:00,46.6,6.5,29.65,NNE,18,3.4,8.1,19,0.00,,,0.00,WUHU216WMR968SP,2013-03-21 17:46:00,
2013-03-21 12:52:00,46.8,6.6,29.65,North,357,0.0,8.1,19,0.00,,,0.00,WUHU216WMR968SP,2013-03-21 17:52:00,
2013-03-21 12:57:00,46.6,6.5,29.65,NNE,22,4.3,6.7,19,0.00,,,0.00,WUHU216WMR968SP,2013-03-21 17:57:00,
2013-03-21 13:02:00,46.4,6.3,29.65,North,355,4.5,7.6,19,0.00,,,0.00,WUHU216WMR968SP,2013-03-21 18:02:00,
2013-03-21 13:07:00,46.4,6.3,29.65,North,7,5.3,7.6,19,0.00,,,0.00,WUHU216WMR968SP,2013-03-21 18:07:00,
2013-03-21 13:12:00,46.8,6.6,29.65,North,353,4.0,10.1,19,0.00,,,0.00,WUHU216WMR968SP,2013-03-21 18:12:00,
2013-03-21 13:17:00,46.4,6.3,29.65,NNW,328,4.7,10.5,19,0.00,,,0.00,WUHU216WMR968SP,2013-03-21 18:17:00,
2013-03-21 13:22:00,46.2,7.2,29.65,NNW,340,4.5,10.5,20,0.00,,,0.00,WUHU216WMR968SP,2013-03-21 18:22:00,
2013-03-21 13:27:00,46.6,6.5,29.65,North,358,5.4,8.7,19,0.00,,,0.00,WUHU216WMR968SP,2013-03-21 18:27:00,
2013-03-21 13:32:00,47.5,7.2,29.62,NE,37,3.0,8.7,19,0.00,,,0.00,WUHU216WMR968SP,2013-03-21 18:32:00,
2013-03-21 13:37:00,47.7,7.4,29.62,NNE,33,4.1,8.3,19,0.00,,,0.00,WUHU216WMR968SP,2013-03-21 18:37:00,
2013-03-21 13:42:00,47.3,7.0,29.62,NNW,338,6.7,8.3,19,0.00,,,0.00,WUHU216WMR968SP,2013-03-21 18:42:00,
2013-03-21 13:47:00,46.4,6.3,29.62,NNE,17,4.0,10.5,19,0.00,,,0.00,WUHU216WMR968SP,2013-03-21 18:47:00,
2013-03-21 13:52:00,46.9,6.7,29.62,NNW,342,6.3,10.5,19,0.00,,,0.00,WUHU216WMR968SP,2013-03-21 18:52:00,
2013-03-21 13:57:00,46.9,6.7,29.62,NNE,13,5.1,11.0,19,0.00,,,0.00,WUHU216WMR968SP,2013-03-21 18:57:00,
2013-03-21 14:02:00,47.3,7.0,29.62,NNE,23,5.2,11.0,19,0.00,,,0.00,WUHU216WMR968SP,2013-03-21 19:02:00,
2013-03-21 14:07:00,47.7,7.4,29.62,NE,40,4.4,8.3,19,0.00,,,0.00,WUHU216WMR968SP,2013-03-21 19:07:00,
2013-03-21 14:12:00,48.0,7.6,29.62,NE,52,3.1,6.7,19,0.00,,,0.00,WUHU216WMR968SP,2013-03-21 19:12:00,
2013-03-21 14:17:00,48.4,8.0,29.59,NE,39,3.1,8.1,19,0.00,,,0.00,WUHU216WMR968SP,2013-03-21 19:17:00,
2013-03-21 14:22:00,48.6,8.1,29.59,NNW,334,0.0,8.1,19,0.00,,,0.00,WUHU216WMR968SP,2013-03-21 19:22:00,
2013-03-21 14:27:00,48.4,8.0,29.59,ENE,59,0.0,5.4,19,0.00,,,0.00,WUHU216WMR968SP,2013-03-21 19:27:00,
2013-03-21 14:32:00,47.8,7.5,29.59,North,3,4.0,6.3,19,0.00,,,0.00,WUHU216WMR968SP,2013-03-21 19:32:00,
2013-03-21 14:37:00,47.8,7.5,29.59,ENE,71,4.5,6.3,19,0.00,,,0.00,WUHU216WMR968SP,2013-03-21 19:37:00,
2013-03-21 14:42:00,48.4,8.0,29.59,North,6,3.6,5.8,19,0.00,,,0.00,WUHU216WMR968SP,2013-03-21 19:42:00,
2013-03-21 14:47:00,48.6,8.1,29.56,NE,38,4.1,6.3,19,0.00,,,0.00,WUHU216WMR968SP,2013-03-21 19:47:00,
2013-03-21 14:52:00,48.7,8.2,29.56,East,87,2.8,6.3,19,0.00,,,0.00,WUHU216WMR968SP,2013-03-21 19:52:00,
2013-03-21 14:57:00,48.9,8.4,29.56,ENE,60,4.0,6.3,19,0.00,,,0.00,WUHU216WMR968SP,2013-03-21 19:57:00,
2013-03-21 15:02:00,48.9,8.4,29.56,NE,44,3.1,5.8,19,0.00,,,0.00,WUHU216WMR968SP,2013-03-21 20:02:00,
2013-03-21 15:07:00,48.4,8.0,29.56,East,79,0.0,5.8,19,0.00,,,0.00,WUHU216WMR968SP,2013-03-21 20:07:00,
2013-03-21 15:12:00,48.2,7.8,29.56,NE,40,4.5,5.8,19,0.00,,,0.00,WUHU216WMR968SP,2013-03-21 20:12:00,
2013-03-21 15:17:00,48.6,8.1,29.56,NNE,33,0.0,5.8,19,0.00,,,0.00,WUHU216WMR968SP,2013-03-21 20:17:00,
2013-03-21 15:22:00,48.7,8.2,29.56,ENE,66,2.2,4.0,19,0.00,,,0.00,WUHU216WMR968SP,2013-03-21 20:22:00,
2013-03-21 15:27:00,48.6,8.1,29.56,NE,43,2.5,5.4,19,0.00,,,0.00,WUHU216WMR968SP,2013-03-21 20:27:00,
2013-03-21 15:32:00,48.9,8.4,29.56,SSW,211,0.0,5.4,19,0.00,,,0.00,WUHU216WMR968SP,2013-03-21 20:32:00,
2013-03-21 15:37:00,49.8,9.1,29.56,ENE,60,0.0,0.0,19,0.00,,,0.00,WUHU216WMR968SP,2013-03-21 20:37:00,
2013-03-21 15:42:00,50.4,9.6,29.56,North,349,0.0,2.2,19,0.00,,,0.00,WUHU216WMR968SP,2013-03-21 20:42:00,
2013-03-21 15:47:00,50.4,9.6,29.53,East,91,3.1,4.0,19,0.00,,,0.00,WUHU216WMR968SP,2013-03-21 20:47:00,
2013-03-21 15:52:00,50.2,9.4,29.53,NE,37,2.2,6.3,19,0.00,,,0.00,WUHU216WMR968SP,2013-03-21 20:52:00,
2013-03-21 15:58:00,49.6,8.9,29.53,NE,37,2.2,6.3,19,0.00,,,0.00,WUHU216WMR968SP,2013-03-21 20:58:00,
2013-03-21 16:03:00,49.6,8.9,29.56,NNW,334,2.2,4.9,19,0.00,,,0.00,WUHU216WMR968SP,2013-03-21 21:03:00,
2013-03-21 16:08:00,49.6,8.9,29.56,ESE,119,3.1,5.4,19,0.00,,,0.00,WUHU216WMR968SP,2013-03-21 21:08:00,
2013-03-21 16:13:00,50.0,9.3,29.56,NE,36,0.0,5.8,19,0.00,,,0.00,WUHU216WMR968SP,2013-03-21 21:13:00,
2013-03-21 16:18:00,50.2,9.4,29.56,SSW,195,0.0,5.8,19,0.00,,,0.00,WUHU216WMR968SP,2013-03-21 21:18:00,
2013-03-21 16:23:00,50.4,9.6,29.56,South,171,3.1,4.0,19,0.00,,,0.00,WUHU216WMR968SP,2013-03-21 21:23:00,
2013-03-21 16:28:00,50.2,9.4,29.56,NW,318,0.0,4.0,19,0.00,,,0.00,WUHU216WMR968SP,2013-03-21 21:28:00,
2013-03-21 16:33:00,50.4,9.6,29.56,NNE,26,2.7,4.0,19,0.00,,,0.00,WUHU216WMR968SP,2013-03-21 21:33:00,
2013-03-21 16:38:00,50.5,9.7,29.56,South,177,2.7,4.9,19,0.00,,,0.00,WUHU216WMR968SP,2013-03-21 21:38:00,
2013-03-21 16:43:00,50.5,9.7,29.56,SSE,164,3.6,4.9,19,0.00,,,0.00,WUHU216WMR968SP,2013-03-21 21:43:00,
2013-03-21 16:48:00,50.4,9.6,29.53,SSE,165,0.0,4.5,19,0.00,,,0.00,WUHU216WMR968SP,2013-03-21 21:48:00,
2013-03-21 16:53:00,50.0,9.3,29.53,SSE,165,0.0,0.0,19,0.00,,,0.00,WUHU216WMR968SP,2013-03-21 21:53:00,
2013-03-21 16:58:00,49.8,9.1,29.53,East,88,0.0,2.7,19,0.00,,,0.00,WUHU216WMR968SP,2013-03-21 21:58:00,
2013-03-21 17:03:00,49.6,8.9,29.53,ESE,114,0.0,2.7,19,0.00,,,0.00,WUHU216WMR968SP,2013-03-21 22:03:00,
2013-03-21 17:08:00,49.5,8.9,29.53,NNE,32,0.0,3.1,19,0.00,,,0.00,WUHU216WMR968SP,2013-03-21 22:08:00,
2013-03-21 17:13:00,49.3,8.7,29.53,SSE,155,0.0,3.1,19,0.00,,,0.00,WUHU216WMR968SP,2013-03-21 22:13:00,
2013-03-21 17:18:00,49.3,8.7,29.53,NE,34,2.2,4.5,19,0.00,,,0.00,WUHU216WMR968SP,2013-03-21 22:18:00,
2013-03-21 17:23:00,48.9,8.4,29.53,NE,40,2.7,4.5,19,0.00,,,0.00,WUHU216WMR968SP,2013-03-21 22:23:00,
2013-03-21 17:28:00,48.7,8.2,29.53,NNE,33,0.0,3.6,19,0.00,,,0.00,WUHU216WMR968SP,2013-03-21 22:28:00,
2013-03-21 17:33:00,48.6,8.1,29.53,ESE,108,0.0,3.1,19,0.00,,,0.00,WUHU216WMR968SP,2013-03-21 22:33:00,
2013-03-21 17:38:00,48.4,8.0,29.53,ESE,108,0.0,2.7,19,0.00,,,0.00,WUHU216WMR968SP,2013-03-21 22:38:00,
2013-03-21 17:43:00,48.4,8.0,29.53,ESE,108,0.0,0.0,19,0.00,,,0.00,WUHU216WMR968SP,2013-03-21 22:43:00,
2013-03-21 17:48:00,48.2,7.8,29.53,ESE,108,0.0,0.0,19,0.00,,,0.00,WUHU216WMR968SP,2013-03-21 22:48:00,
2013-03-21 17:53:00,48.0,7.6,29.53,ESE,108,0.0,0.0,19,0.00,,,0.00,WUHU216WMR968SP,2013-03-21 22:53:00,
2013-03-21 17:58:00,47.7,7.4,29.53,ESE,108,0.0,0.0,19,0.00,,,0.00,WUHU216WMR968SP,2013-03-21 22:58:00,
2013-03-21 18:03:00,47.5,7.2,29.53,NE,44,0.0,0.0,19,0.00,,,0.00,WUHU216WMR968SP,2013-03-21 23:03:00,
2013-03-21 18:08:00,47.3,7.0,29.53,NE,37,0.0,0.0,19,0.00,,,0.00,WUHU216WMR968SP,2013-03-21 23:08:00,
2013-03-21 18:13:00,47.3,7.0,29.53,NNE,32,0.0,2.2,19,0.00,,,0.00,WUHU216WMR968SP,2013-03-21 23:13:00,
2013-03-21 18:18:00,47.3,7.0,29.53,North,7,0.0,2.7,19,0.00,,,0.00,WUHU216WMR968SP,2013-03-21 23:18:00,
2013-03-21 18:23:00,47.1,6.9,29.53,NE,47,0.0,2.7,19,0.00,,,0.00,WUHU216WMR968SP,2013-03-21 23:23:00,
2013-03-21 18:28:00,46.9,6.7,29.53,NE,47,0.0,0.0,19,0.00,,,0.00,WUHU216WMR968SP,2013-03-21 23:28:00,
2013-03-21 18:33:00,46.8,6.6,29.53,NE,47,0.0,0.0,19,0.00,,,0.00,WUHU216WMR968SP,2013-03-21 23:33:00,
2013-03-21 18:38:00,46.6,6.5,29.53,NE,47,0.0,0.0,19,0.00,,,0.00,WUHU216WMR968SP,2013-03-21 23:38:00,
2013-03-21 18:43:00,46.4,6.3,29.53,NE,47,0.0,0.0,19,0.00,,,0.00,WUHU216WMR968SP,2013-03-21 23:43:00,
2013-03-21 18:48:00,46.2,7.2,29.53,NE,47,0.0,0.0,20,0.00,,,0.00,WUHU216WMR968SP,2013-03-21 23:48:00,
2013-03-21 18:53:00,46.0,7.1,29.53,NE,47,0.0,0.0,20,0.00,,,0.00,WUHU216WMR968SP,2013-03-21 23:53:00,
2013-03-21 18:58:00,45.9,7.0,29.53,NE,47,0.0,0.0,20,0.00,,,0.00,WUHU216WMR968SP,2013-03-21 23:58:00,
2013-03-21 19:03:00,45.9,7.0,29.53,NE,47,0.0,3.1,20,0.00,,,0.00,WUHU216WMR968SP,2013-03-22 00:03:00,
2013-03-21 19:08:00,45.9,7.0,29.53,NE,47,0.0,3.1,20,0.00,,,0.00,WUHU216WMR968SP,2013-03-22 00:08:00,
2013-03-21 19:13:00,45.7,6.8,29.53,NNE,24,3.1,5.4,20,0.00,,,0.00,WUHU216WMR968SP,2013-03-22 00:13:00,
2013-03-21 19:18:00,45.7,6.8,29.53,North,353,0.0,5.4,20,0.00,,,0.00,WUHU216WMR968SP,2013-03-22 00:18:00,
2013-03-21 19:23:00,45.7,6.8,29.53,South,191,0.0,4.9,20,0.00,,,0.00,WUHU216WMR968SP,2013-03-22 00:23:00,
2013-03-21 19:28:00,45.5,6.7,29.53,North,7,2.2,3.1,20,0.00,,,0.00,WUHU216WMR968SP,2013-03-22 00:28:00,
2013-03-21 19:33:00,45.3,6.5,29.53,North,2,2.2,4.0,20,0.00,,,0.00,WUHU216WMR968SP,2013-03-22 00:33:00,
2013-03-21 19:38:00,45.1,6.3,29.53,NNE,22,3.6,4.9,20,0.00,,,0.00,WUHU216WMR968SP,2013-03-22 00:38:00,
2013-03-21 19:43:00,45.0,6.2,29.53,NNE,33,0.0,4.9,20,0.00,,,0.00,WUHU216WMR968SP,2013-03-22 00:43:00,
2013-03-21 19:48:00,44.8,6.1,29.53,North,3,2.7,4.0,20,0.00,,,0.00,WUHU216WMR968SP,2013-03-22 00:48:00,
2013-03-21 19:53:00,44.6,5.9,29.53,North,0,0.0,3.6,20,0.00,,,0.00,WUHU216WMR968SP,2013-03-22 00:53:00,
2013-03-21 19:58:00,44.6,5.9,29.53,NNE,12,0.0,4.0,20,0.00,,,0.00,WUHU216WMR968SP,2013-03-22 00:58:00,
2013-03-21 20:03:00,44.4,5.7,29.56,North,0,0.0,4.0,20,0.00,,,0.00,WUHU216WMR968SP,2013-03-22 01:03:00,
2013-03-21 20:08:00,44.2,5.6,29.56,NNE,19,0.0,3.1,20,0.00,,,0.00,WUHU216WMR968SP,2013-03-22 01:08:00,
2013-03-21 20:13:00,44.2,5.6,29.56,North,6,0.0,3.1,20,0.00,,,0.00,WUHU216WMR968SP,2013-03-22 01:13:00,
2013-03-21 20:18:00,44.1,5.5,29.56,NNE,17,2.2,3.6,20,0.00,,,0.00,WUHU216WMR968SP,2013-03-22 01:18:00,
2013-03-21 20:23:00,44.1,5.5,29.56,NNW,346,0.0,3.6,20,0.00,,,0.00,WUHU216WMR968SP,2013-03-22 01:23:00,
2013-03-21 20:28:00,43.9,8.3,29.56,NE,38,0.0,3.1,23,0.00,,,0.00,WUHU216WMR968SP,2013-03-22 01:28:00,
2013-03-21 20:33:00,43.9,8.3,29.56,North,359,2.2,3.1,23,0.00,,,0.00,WUHU216WMR968SP,2013-03-22 01:33:00,
2013-03-21 20:38:00,43.7,8.2,29.56,NNW,337,0.0,3.1,23,0.00,,,0.00,WUHU216WMR968SP,2013-03-22 01:38:00,
2013-03-21 20:43:00,43.7,5.2,29.56,North,5,4.0,5.4,20,0.00,,,0.00,WUHU216WMR968SP,2013-03-22 01:43:00,
2013-03-21 20:48:00,43.7,8.2,29.56,NNW,342,2.2,5.4,23,0.00,,,0.00,WUHU216WMR968SP,2013-03-22 01:48:00,
2013-03-21 20:53:00,43.5,8.0,29.56,North,10,0.0,4.0,23,0.00,,,0.00,WUHU216WMR968SP,2013-03-22 01:53:00,
2013-03-21 20:58:00,43.5,8.0,29.56,NNW,346,2.7,4.0,23,0.00,,,0.00,WUHU216WMR968SP,2013-03-22 01:58:00,
2013-03-21 21:03:00,43.5,8.0,29.56,North,0,3.6,5.8,23,0.00,,,0.00,WUHU216WMR968SP,2013-03-22 02:03:00,
2013-03-21 21:08:00,43.3,7.8,29.56,NNE,14,2.7,5.8,23,0.00,,,0.00,WUHU216WMR968SP,2013-03-22 02:08:00,
2013-03-21 21:13:00,43.3,7.8,29.56,North,10,0.0,5.4,23,0.00,,,0.00,WUHU216WMR968SP,2013-03-22 02:13:00,
2013-03-21 21:18:00,43.3,7.8,29.59,North,2,2.9,4.9,23,0.00,,,0.00,WUHU216WMR968SP,2013-03-22 02:18:00,
2013-03-21 21:23:00,43.3,7.8,29.59,North,2,2.9,5.4,23,0.00,,,0.00,WUHU216WMR968SP,2013-03-22 02:23:00,
2013-03-21 21:28:00,43.3,7.8,29.59,NNW,332,3.6,5.4,23,0.00,,,0.00,WUHU216WMR968SP,2013-03-22 02:28:00,
2013-03-21 21:33:00,43.3,7.8,29.59,North,4,0.0,4.0,23,0.00,,,0.00,WUHU216WMR968SP,2013-03-22 02:33:00,
2013-03-21 21:38:00,43.0,7.6,29.59,NNE,18,2.7,3.6,23,0.00,,,0.00,WUHU216WMR968SP,2013-03-22 02:38:00,
2013-03-21 21:43:00,43.0,7.6,29.59,North,9,2.7,3.6,23,0.00,,,0.00,WUHU216WMR968SP,2013-03-22 02:43:00,
2013-03-21 21:48:00,43.0,7.6,29.59,NNE,25,2.7,5.4,23,0.00,,,0.00,WUHU216WMR968SP,2013-03-22 02:48:00,
2013-03-21 21:53:00,43.0,7.6,29.59,NNE,19,3.1,7.6,23,0.00,,,0.00,WUHU216WMR968SP,2013-03-22 02:53:00,
2013-03-21 21:58:00,43.0,7.6,29.59,North,1,2.7,7.6,23,0.00,,,0.00,WUHU216WMR968SP,2013-03-22 02:58:00,
2013-03-21 22:03:00,43.2,7.8,29.59,North,11,2.7,5.8,23,0.00,,,0.00,WUHU216WMR968SP,2013-03-22 03:03:00,
2013-03-21 22:08:00,43.0,7.6,29.59,North,0,4.1,6.3,23,0.00,,,0.00,WUHU216WMR968SP,2013-03-22 03:08:00,
2013-03-21 22:13:00,43.0,9.4,29.59,NNE,13,5.4,8.7,25,0.00,,,0.00,WUHU216WMR968SP,2013-03-22 03:13:00,
2013-03-21 22:18:00,42.8,11.7,29.59,NE,50,6.3,8.7,28,0.00,,,0.00,WUHU216WMR968SP,2013-03-22 03:18:00,
2013-03-21 22:23:00,42.4,12.2,29.59,ENE,59,3.1,8.3,29,0.00,,,0.00,WUHU216WMR968SP,2013-03-22 03:23:00,
2013-03-21 22:28:00,42.3,12.8,29.59,NNE,23,4.2,5.8,30,0.00,,,0.00,WUHU216WMR968SP,2013-03-22 03:28:00,
2013-03-21 22:33:00,41.7,13.0,29.59,NNE,27,4.8,5.8,31,0.00,,,0.00,WUHU216WMR968SP,2013-03-22 03:33:00,
2013-03-21 22:38:00,41.5,13.6,29.59,NNE,27,4.0,6.3,32,0.00,,,0.00,WUHU216WMR968SP,2013-03-22 03:38:00,
2013-03-21 22:43:00,41.2,14.7,29.59,NE,39,5.3,8.3,34,0.00,,,0.00,WUHU216WMR968SP,2013-03-22 03:43:00,
2013-03-21 22:48:00,40.6,15.5,29.59,ENE,65,3.1,8.3,36,0.00,,,0.00,WUHU216WMR968SP,2013-03-22 03:48:00,
2013-03-21 22:53:00,39.4,16.3,29.59,NE,39,2.2,6.3,39,0.00,,,0.00,WUHU216WMR968SP,2013-03-22 03:53:00,
2013-03-21 22:58:00,38.5,17.8,29.59,NE,55,3.7,8.3,43,0.00,,,0.00,WUHU216WMR968SP,2013-03-22 03:58:00,
2013-03-21 23:00:00,38.5,17.8,29.59,NE,53,3.3,8.3,43,0.00,,,0.00,WUHU216WMR968SP,2013-03-22 04:00:00,
2013-03-21 23:05:00,37.6,18.0,29.59,North,9,3.1,6.3,45,0.00,,,0.00,WUHU216WMR968SP,2013-03-22 04:05:00,
2013-03-21 23:10:00,37.4,18.4,29.59,NE,45,3.1,6.3,46,0.00,,,0.00,WUHU216WMR968SP,2013-03-22 04:10:00,
2013-03-21 23:15:00,37.0,20.0,29.59,ENE,57,3.1,5.8,50,0.00,,,0.00,WUHU216WMR968SP,2013-03-22 04:15:00,
2013-03-21 23:20:00,36.9,20.4,29.59,NE,45,2.2,5.8,51,0.00,,,0.00,WUHU216WMR968SP,2013-03-22 04:20:00,
2013-03-21 23:25:00,36.7,20.7,29.59,East,94,3.1,5.4,52,0.00,,,0.00,WUHU216WMR968SP,2013-03-22 04:25:00,
2013-03-21 23:30:00,36.7,21.2,29.59,NE,42,2.7,5.4,53,0.00,,,0.00,WUHU216WMR968SP,2013-03-22 04:30:00,
2013-03-21 23:35:00,36.7,21.2,29.59,ENE,61,0.0,3.6,53,0.00,,,0.00,WUHU216WMR968SP,2013-03-22 04:35:00,
2013-03-21 23:40:00,36.3,21.2,29.59,NE,55,2.2,3.1,54,0.00,,,0.00,WUHU216WMR968SP,2013-03-22 04:40:00,
2013-03-21 23:45:00,36.0,21.0,29.59,NE,55,2.7,5.4,54,0.00,,,0.00,WUHU216WMR968SP,2013-03-22 04:45:00,
2013-03-21 23:50:00,35.2,20.6,29.59,NNE,19,0.0,5.4,55,0.00,,,0.00,WUHU216WMR968SP,2013-03-22 04:50:00,
2013-03-21 23:55:00,34.9,21.2,29.59,NE,36,3.6,6.3,57,0.00,,,0.00,WUHU216WMR968SP,2013-03-22 04:55:00,